Weather History for KAUO - February, 2014

Change the Weather History Date:

Thursday, February 6, 2014

  Actual Average Record
Temperature  
Mean Temperature 35 °F -  
Max Temperature 41 °F - 74 °F (1976)
Min Temperature 28 °F - 16 °F (1966)
Degree Days  
Heating Degree Days 30    
Month to date heating degree days 102  
Since 1 July heating degree days 1861  
Moisture  
Dew Point 22 °F    
Average Humidity 65    
Maximum Humidity 86    
Minimum Humidity 49    
Precipitation  
Precipitation 0.00 in - 3.33 in (2002)
Month to date precipitation 1.20  
Year to date precipitation 2.80  
Sea Level Pressure  
Sea Level Pressure 30.27 in    
Wind  
Wind Speed 8 mph (North)    
Max Wind Speed 14 mph    
Max Gust Speed 18 mph    
Visibility 10 miles    
Events      
T = Trace of Precipitation, MM = Missing Value Source: NWS Daily Summary

Daily Weather History Graph

Daily Weather History Graph

Search for Another Location

Airport or City:

Trip Planner

Search our weather history database for the weather conditions in past years. The results will help you decide how hot, cold, wet, or windy it might be!

Date:

Astronomy

Feb. 06, 2014 Rise Set
Actual Time 6:32 AM CST 5:19 PM CST
Civil Twilight 6:07 AM CST 5:44 PM CST
Nautical Twilight 5:37 AM CST 6:14 PM CST
Astronomical Twilight 5:09 AM CST 6:43 PM CST
Moon 10:51 AM CST (2/6) No Moon Set
Length of Visible Light 11h 37m
Length of Day
10h 46m
Waxing Crescent, 49% of the Moon is Illuminated
Feb 6
Waxing Crescent
Feb 6
First Quarter
Feb 14
Full
Feb 22
Last Quarter
Mar 1
New

Hourly Weather History & Observations

Time (CST) Temp. Windchill Dew Point Humidity Pressure Visibility Wind Dir Wind Speed Gust Speed Precip Events Conditions
12:15 AM 30.2 °F 22.6 °F 23.0 °F 75% 30.23 in 10.0 mi NNW 8.1 mph - N/A   Clear
12:35 AM 30.2 °F 22.6 °F 23.0 °F 75% 30.24 in 10.0 mi NNW 8.1 mph - N/A   Mostly Cloudy
12:55 AM 30.2 °F 21.9 °F 24.8 °F 80% 30.24 in 10.0 mi NNW 9.2 mph - N/A   Overcast
1:15 AM 30.2 °F 20.8 °F 23.0 °F 75% 30.24 in 10.0 mi NNW 11.5 mph - N/A   Overcast
1:35 AM 30.2 °F 19.8 °F 23.0 °F 75% 30.23 in 10.0 mi North 13.8 mph - N/A   Overcast
1:55 AM 30.2 °F 22.6 °F 23.0 °F 75% 30.23 in 10.0 mi North 8.1 mph - N/A   Overcast
2:15 AM 30.2 °F 19.8 °F 21.2 °F 69% 30.24 in 10.0 mi NNW 13.8 mph 21.9 mph N/A   Overcast
2:35 AM 30.2 °F 20.8 °F 21.2 °F 69% 30.24 in 10.0 mi NNW 11.5 mph 18.4 mph N/A   Overcast
2:55 AM 30.2 °F 20.8 °F 21.2 °F 69% 30.24 in 10.0 mi North 11.5 mph - N/A   Overcast
3:15 AM 28.4 °F 17.0 °F 21.2 °F 74% 30.24 in 10.0 mi North 15.0 mph - N/A   Mostly Cloudy
3:35 AM 28.4 °F 19.1 °F 21.2 °F 74% 30.24 in 10.0 mi North 10.4 mph 17.3 mph N/A   Partly Cloudy
3:55 AM 28.4 °F 20.4 °F 19.4 °F 69% 30.23 in 10.0 mi North 8.1 mph - N/A   Clear
4:15 AM 28.4 °F 18.0 °F 21.2 °F 74% 30.22 in 10.0 mi North 12.7 mph 17.3 mph N/A   Partly Cloudy
4:35 AM 28.4 °F 19.1 °F 21.2 °F 74% 30.24 in 10.0 mi North 10.4 mph - N/A   Partly Cloudy
4:55 AM 28.4 °F 20.4 °F 19.4 °F 69% 30.27 in 10.0 mi NNW 8.1 mph - N/A   Mostly Cloudy
5:15 AM 28.4 °F 19.1 °F 19.4 °F 69% 30.28 in 10.0 mi NNW 10.4 mph - N/A   Overcast
5:35 AM 28.4 °F 19.1 °F 19.4 °F 69% 30.29 in 10.0 mi NNW 10.4 mph - N/A   Overcast
5:55 AM 28.4 °F 18.5 °F 19.4 °F 69% 30.28 in 10.0 mi North 11.5 mph - N/A   Overcast
6:15 AM 28.4 °F 18.0 °F 19.4 °F 69% 30.28 in 10.0 mi North 12.7 mph - N/A   Overcast
6:35 AM 28.4 °F 17.5 °F 19.4 °F 69% 30.27 in 10.0 mi North 13.8 mph 18.4 mph N/A   Overcast
6:55 AM 28.4 °F 17.5 °F 21.2 °F 74% 30.27 in 10.0 mi North 13.8 mph 18.4 mph N/A   Overcast
7:15 AM 28.4 °F 19.1 °F 21.2 °F 74% 30.27 in 10.0 mi North 10.4 mph 18.4 mph N/A   Partly Cloudy
7:35 AM 30.2 °F 20.2 °F 19.4 °F 64% 30.29 in 10.0 mi North 12.7 mph 18.4 mph N/A   Clear
7:55 AM 30.2 °F 20.2 °F 19.4 °F 64% 30.28 in 10.0 mi North 12.7 mph - N/A   Clear
8:15 AM 30.2 °F 20.8 °F 21.2 °F 69% 30.30 in 10.0 mi North 11.5 mph - N/A   Clear
8:35 AM 33.8 °F 25.3 °F 21.2 °F 60% 30.31 in 10.0 mi North 11.5 mph 19.6 mph N/A   Clear
8:55 AM 32.0 °F 23.0 °F 21.2 °F 64% 30.31 in 10.0 mi North 11.5 mph 17.3 mph N/A   Clear
9:15 AM 33.8 °F 27.0 °F 21.2 °F 60% 30.32 in 10.0 mi North 8.1 mph - N/A   Clear
9:35 AM 33.8 °F 25.8 °F 21.2 °F 60% 30.33 in 10.0 mi North 10.4 mph - N/A   Clear
9:55 AM 33.8 °F 24.8 °F 21.2 °F 60% 30.32 in 10.0 mi North 12.7 mph - N/A   Clear
10:15 AM 35.6 °F 28.6 °F 21.2 °F 56% 30.33 in 10.0 mi NNE 9.2 mph - N/A   Clear
10:35 AM 35.6 °F 29.2 °F 21.2 °F 56% 30.33 in 10.0 mi North 8.1 mph - N/A   Clear
10:55 AM 35.6 °F 29.9 °F 21.2 °F 56% 30.31 in 10.0 mi NNE 6.9 mph - N/A   Clear
11:15 AM 35.6 °F 28.0 °F 21.2 °F 56% 30.30 in 10.0 mi North 10.4 mph - N/A   Clear
11:35 AM 35.6 °F 28.6 °F 21.2 °F 56% 30.27 in 10.0 mi North 9.2 mph - N/A   Clear
11:55 AM 35.6 °F 30.7 °F 21.2 °F 56% 30.29 in 10.0 mi NNE 5.8 mph - N/A   Partly Cloudy
12:15 PM 37.4 °F 32.1 °F 21.2 °F 52% 30.27 in 10.0 mi NNE 6.9 mph - N/A   Clear
12:35 PM 37.4 °F 32.1 °F 21.2 °F 52% 30.25 in 10.0 mi NNE 6.9 mph - N/A   Clear
12:55 PM 37.4 °F 32.1 °F 23.0 °F 56% 30.23 in 10.0 mi North 6.9 mph - N/A   Clear
1:15 PM 39.2 °F 34.2 °F 23.0 °F 52% 30.23 in 10.0 mi North 6.9 mph - N/A   Clear
1:35 PM 39.2 °F 37.0 °F 21.2 °F 49% 30.22 in 10.0 mi NE 3.5 mph - N/A   Partly Cloudy
1:55 PM 39.2 °F 35.0 °F 23.0 °F 52% 30.25 in 10.0 mi NW 5.8 mph - N/A   Partly Cloudy
2:15 PM 39.2 °F 35.0 °F 23.0 °F 52% 30.24 in 10.0 mi North 5.8 mph - N/A   Clear
2:35 PM 39.2 °F 33.6 °F 23.0 °F 52% 30.24 in 10.0 mi North 8.1 mph - N/A   Scattered Clouds
2:55 PM 39.2 °F 33.0 °F 23.0 °F 52% 30.25 in 10.0 mi NNW 9.2 mph - N/A   Scattered Clouds
3:15 PM 39.2 °F 34.2 °F 23.0 °F 52% 30.27 in 10.0 mi NW 6.9 mph - N/A   Mostly Cloudy
3:35 PM 39.2 °F 33.0 °F 23.0 °F 52% 30.27 in 10.0 mi NW 9.2 mph - N/A   Overcast
3:55 PM 39.2 °F 32.0 °F 23.0 °F 52% 30.28 in 10.0 mi NW 11.5 mph - N/A   Overcast
4:15 PM 39.2 °F 33.6 °F 23.0 °F 52% 30.31 in 10.0 mi NNW 8.1 mph - N/A   Overcast
4:35 PM 39.2 °F 33.0 °F 23.0 °F 52% 30.29 in 10.0 mi NNW 9.2 mph - N/A   Overcast
4:55 PM 37.4 °F 31.4 °F 23.0 °F 56% 30.29 in 10.0 mi North 8.1 mph - N/A   Overcast
5:15 PM 37.4 °F 31.4 °F 23.0 °F 56% 30.29 in 10.0 mi North 8.1 mph - N/A   Overcast
5:35 PM 35.6 °F 29.2 °F 24.8 °F 65% 30.27 in 5.0 mi North 8.1 mph - N/A   Mostly Cloudy
5:55 PM 35.6 °F 27.5 °F 24.8 °F 65% 30.29 in 10.0 mi North 11.5 mph - N/A   Partly Cloudy
6:15 PM 35.6 °F 27.5 °F 23.0 °F 60% 30.28 in 10.0 mi North 11.5 mph - N/A   Scattered Clouds
6:35 PM 35.6 °F 28.6 °F 21.2 °F 56% 30.28 in 10.0 mi North 9.2 mph - N/A   Scattered Clouds
6:55 PM 35.6 °F 29.2 °F 23.0 °F 60% 30.29 in 10.0 mi North 8.1 mph - N/A   Mostly Cloudy
7:15 PM 33.8 °F 27.7 °F 23.0 °F 65% 30.30 in 10.0 mi North 6.9 mph - N/A   Mostly Cloudy
7:35 PM 33.8 °F 27.0 °F 23.0 °F 65% 30.29 in 10.0 mi North 8.1 mph - N/A   Mostly Cloudy
7:55 PM 33.8 °F 28.6 °F 24.8 °F 70% 30.29 in 10.0 mi NNE 5.8 mph - N/A   Mostly Cloudy
8:15 PM 33.8 °F 28.6 °F 23.0 °F 65% 30.30 in 10.0 mi NNE 5.8 mph - N/A   Mostly Cloudy
8:35 PM 33.8 °F 27.7 °F 24.8 °F 70% 30.31 in 10.0 mi North 6.9 mph - N/A   Scattered Clouds
8:55 PM 32.0 °F 27.5 °F 24.8 °F 75% 30.32 in 10.0 mi NW 4.6 mph - N/A   Scattered Clouds
9:15 PM 32.0 °F 28.7 °F 24.8 °F 75% 30.31 in 10.0 mi North 3.5 mph - N/A   Clear
9:35 PM 30.2 °F - 24.8 °F 80% 30.31 in 10.0 mi Calm Calm - N/A   Clear
9:55 PM 30.2 °F - 24.8 °F 80% 30.30 in 10.0 mi Calm Calm - N/A   Clear
10:15 PM 30.2 °F 26.7 °F 24.8 °F 80% 30.29 in 10.0 mi ENE 3.5 mph - N/A   Clear
10:35 PM 30.2 °F 26.7 °F 24.8 °F 80% 30.28 in 10.0 mi East 3.5 mph - N/A   Clear
10:55 PM 30.2 °F - 24.8 °F 80% 30.27 in 10.0 mi Calm Calm - N/A   Clear
11:15 PM 30.2 °F - 24.8 °F 80% 30.27 in 10.0 mi Calm Calm - N/A   Clear
11:35 PM 30.2 °F 25.4 °F 24.8 °F 80% 30.26 in 10.0 mi North 4.6 mph - N/A   Clear
11:55 PM 28.4 °F 22.2 °F 24.8 °F 86% 30.27 in 8.0 mi NNW 5.8 mph - N/A   Clear